RH
45 46 49 52 54 54 54 55 54 54 52 49 52 60 68 66 64 70 67 58 55 49 45 43 42 44 48 50 51 52 48 39 36 35 32 29 26 25 24 22 22 22 24 26 27 30 31 34 37 40 43 44 45 47 49 50 51 52 54 55 55 56 57 57 59 61 63 65 66 69 71 71 72 75 77 79 77 77 78 76 74 75 75 75 74
44 45 48 50 54 54 55 55 54 53 50 49 54 58 67 71 71 73 65 55 51 46 43 43 44 48 50 52 54 52 49 45 41 36 32 28 25 26 25 21 20 19 18 19 24 26 27 29 30 33 37 40 43 46 48 49 49 50 52 52 52 53 56 56 56 59 59 60 62 66 71 71 68 70 75 80 79 77 80 80 77 76 79 79 76
41 44 49 51 54 55 56 57 55 53 51 53 58 61 69 77 75 73 64 52 48 44 44 45 45 47 48 48 50 51 50 48 42 34 32 29 24 24 25 23 22 22 20 19 21 22 24 27 27 28 31 34 40 45 48 50 50 49 50 50 49 49 52 53 53 57 57 58 59 61 69 73 70 69 73 78 79 79 81 80 77 77 80 82 81
41 45 50 53 55 56 56 58 57 54 53 54 59 66 75 79 75 69 59 49 46 45 47 48 45 43 43 40 41 45 42 36 34 33 34 33 26 24 25 26 28 25 23 23 22 20 21 23 24 27 27 28 34 40 44 47 48 48 48 49 49 49 49 49 48 51 53 55 56 58 67 75 73 75 79 79 81 82 79 77 76 78 78 78 78
45 48 52 54 55 56 56 58 58 56 53 51 56 65 72 77 74 63 52 47 48 49 49 48 46 43 41 39 38 38 34 33 39 41 40 38 32 27 24 25 31 29 27 26 24 22 23 22 22 24 24 24 27 33 37 39 41 43 44 45 47 48 47 48 47 46 47 51 54 58 66 73 75 78 82 82 82 82 79 76 76 77 77 75 76
48 51 53 53 53 56 57 57 56 55 52 50 54 62 65 68 69 61 54 53 52 53 53 50 47 42 39 41 39 36 36 41 46 45 45 43 37 32 28 27 30 31 30 28 24 23 24 23 23 24 23 21 22 28 31 32 33 36 38 39 41 44 44 47 49 46 47 49 53 58 63 66 69 73 79 81 80 79 79 78 77 78 77 75 75
47 50 53 53 53 56 57 55 54 54 54 53 55 61 61 60 63 60 55 57 56 52 50 49 47 42 40 42 43 44 45 46 43 41 42 41 36 34 32 29 31 32 31 28 26 24 23 23 23 24 25 24 22 24 26 27 30 34 35 36 37 38 39 42 47 48 48 49 53 58 59 60 62 66 74 75 71 72 75 74 74 75 74 72 72
45 47 50 54 56 58 58 57 58 57 57 58 60 61 58 55 60 58 51 54 59 54 48 48 46 42 43 46 49 51 47 41 39 38 39 38 35 37 38 34 33 34 34 32 31 28 26 27 26 25 29 31 28 26 25 25 27 28 30 32 35 37 37 38 41 44 46 47 50 55 57 60 63 65 68 65 61 67 74 72 70 69 68 68 69
45 45 48 56 61 62 63 62 63 63 62 62 61 60 57 55 58 59 51 52 59 58 51 50 48 43 44 46 48 48 43 39 39 38 38 37 35 37 42 39 34 34 35 35 33 30 29 31 30 27 28 33 35 31 27 26 26 26 27 29 33 36 37 38 38 38 41 44 48 53 55 57 62 66 66 61 57 65 75 73 68 67 66 66 66
46 45 47 54 58 60 63 63 61 63 65 64 63 62 61 60 61 63 60 57 58 58 56 55 50 45 44 43 41 41 40 39 38 37 37 38 37 37 41 43 40 38 36 33 31 27 26 29 30 26 23 27 32 29 26 26 27 25 24 27 32 35 36 35 35 36 37 40 45 51 50 50 56 62 62 60 59 64 70 68 63 62 62 62 64
46 47 49 50 51 54 57 58 58 62 68 65 63 65 65 65 70 73 72 71 67 64 64 62 55 48 45 43 41 40 40 39 39 38 39 40 40 40 41 44 45 42 35 29 26 23 22 24 25 23 19 18 23 25 25 27 27 25 24 25 27 34 38 34 31 34 36 36 39 43 44 46 52 56 58 59 61 64 63 59 58 59 59 60 62
47 50 51 47 51 56 55 57 61 67 74 71 67 69 66 66 73 76 76 80 78 73 71 68 62 54 48 46 45 43 43 43 43 41 42 43 43 41 40 40 41 40 36 30 26 22 21 21 22 21 18 16 19 25 25 25 26 25 22 20 19 26 36 36 33 34 37 38 39 41 44 46 49 52 57 61 62 61 58 57 60 60 58 59 61
50 51 49 48 56 61 57 59 62 64 72 75 76 78 72 67 69 70 75 82 81 80 77 72 69 62 53 52 53 50 47 48 47 46 47 48 46 44 41 40 42 41 37 33 29 24 21 21 22 20 18 16 16 18 19 21 25 24 18 16 14 15 23 30 31 32 36 38 38 39 41 43 45 48 50 52 51 49 49 52 58 61 61 64 69
52 52 52 55 63 66 61 60 60 61 65 70 73 73 69 68 70 71 78 82 81 82 80 74 72 67 59 59 60 55 50 51 52 51 51 51 50 49 46 46 48 45 40 37 33 27 24 23 22 19 17 16 14 14 14 16 22 24 18 14 13 12 13 17 19 21 24 28 30 33 35 36 38 40 43 45 44 43 44 47 52 56 57 58 64
56 57 57 61 69 69 64 61 60 63 66 66 67 66 63 66 71 73 79 82 80 83 82 78 75 70 66 65 63 59 55 52 52 54 54 54 54 55 52 49 51 49 45 41 36 30 27 27 25 21 18 16 15 15 15 14 17 19 16 13 12 12 12 12 12 13 14 15 18 22 25 26 26 27 31 35 39 40 40 40 39 38 39 38 39
56 59 62 68 73 70 63 59 60 67 73 71 67 68 65 64 66 69 73 76 78 82 83 81 80 74 69 65 62 61 59 54 53 54 55 55 57 60 57 51 52 52 49 45 40 36 34 33 32 27 24 22 20 20 20 18 18 18 17 15 15 13 13 12 11 11 11 11 12 13 15 16 14 16 18 19 24 30 32 33 29 27 30 31 28
55 59 67 74 75 72 68 63 60 63 70 72 67 66 66 65 66 67 68 70 73 76 78 78 77 72 66 63 61 63 62 56 52 53 54 56 59 62 60 54 53 54 51 48 46 44 42 40 38 35 32 29 28 26 26 26 24 24 22 22 21 20 19 18 16 15 13 12 11 12 13 12 11 12 13 12 14 20 25 29 27 24 26 30 29
54 59 68 74 73 71 71 72 70 64 65 69 66 62 62 64 68 68 68 68 69 71 71 71 72 69 64 62 61 61 59 53 49 49 52 56 61 63 61 55 54 54 53 51 50 48 45 43 41 40 38 35 34 32 31 30 29 29 28 27 27 26 26 25 24 24 22 21 21 19 19 19 17 15 15 14 13 15 20 23 24 22 22 26 25
54 56 64 68 68 67 65 69 76 74 70 71 66 63 65 66 66 68 69 70 70 72 71 70 71 69 65 61 57 55 54 52 49 48 50 54 57 60 58 54 53 54 54 55 54 49 46 44 42 41 41 39 38 37 36 34 34 33 33 31 31 31 31 31 30 30 30 30 29 30 30 30 29 28 27 25 22 23 25 25 25 25 25 26 24
49 50 55 57 58 63 67 70 74 74 72 72 67 63 68 69 66 67 70 69 69 70 70 69 69 67 61 56 54 53 53 52 50 48 51 54 54 55 57 54 53 56 55 55 56 51 47 45 43 43 43 42 41 41 40 39 37 36 36 36 34 35 35 35 35 34 34 35 35 35 35 35 36 38 37 35 34 34 34 33 33 32 33 34 32
48 48 51 52 51 56 63 72 77 75 71 72 66 59 62 66 65 64 65 66 66 64 63 63 64 63 58 54 53 54 53 52 50 47 48 50 51 53 54 51 50 55 54 53 55 54 49 46 44 46 48 47 45 46 45 43 41 40 40 39 39 41 42 40 39 38 37 37 37 37 37 37 38 39 40 41 40 39 39 39 39 39 40 41 41
54 52 54 57 57 59 64 70 76 76 72 70 64 58 59 62 63 61 61 62 63 62 60 58 58 59 58 57 56 56 56 56 55 50 47 47 49 51 50 46 44 48 50 49 49 48 48 46 45 47 51 52 52 53 52 51 51 48 46 45 45 47 48 46 44 45 43 41 41 41 40 40 40 41 43 45 45 45 44 43 43 42 43 45 45
57 58 62 67 68 68 69 70 71 73 73 68 63 60 60 60 62 62 60 60 61 60 58 56 55 55 56 57 58 58 57 58 59 55 50 47 47 48 46 43 42 43 46 47 45 43 44 46 46 48 52 57 58 59 58 59 59 57 55 55 56 55 54 53 53 55 54 51 50 50 47 46 45 45 45 47 49 50 51 50 49 49 49 49 50
61 62 68 72 72 71 72 71 70 71 71 66 61 60 58 57 60 61 59 59 60 58 56 56 56 56 55 56 57 57 56 58 59 56 50 45 43 43 43 41 41 43 45 49 51 49 48 48 50 51 53 57 60 61 63 64 65 64 64 65 66 66 65 64 64 64 64 61 59 60 60 56 55 54 51 50 52 54 53 52 53 54 55 57 57
65 64 64 64 65 65 66 67 67 68 68 67 66 65 62 60 59 59 59 58 58 57 56 56 56 57 57 55 55 55 53 55 57 54 49 43 39 39 40 39 39 41 44 50 55 58 59 58 57 57 56 56 60 64 68 70 70 69 69 70 71 73 73 72 71 72 71 68 66 68 69 67 65 66 65 62 61 61 58 57 56 55 56 58 59
63 62 62 60 59 59 58 61 64 69 70 70 71 72 70 68 67 66 64 61 60 60 60 60 61 61 61 59 56 54 52 54 58 56 52 48 44 43 43 41 40 41 45 52 58 62 66 67 68 68 66 62 64 69 70 72 74 74 73 74 74 75 77 77 78 78 74 70 68 68 68 67 67 70 74 75 71 67 66 65 63 60 59 59 59
53 55 55 55 55 56 57 59 63 66 68 69 71 72 73 71 70 69 68 66 65 65 65 66 66 66 66 63 59 54 53 55 57 57 56 55 54 54 53 49 46 45 47 55 61 64 68 72 72 73 73 69 68 69 70 70 72 72 73 74 74 75 78 79 81 81 77 72 69 66 65 65 66 68 74 76 73 70 72 73 72 72 72 71 68
50 51 50 49 50 53 56 58 58 59 61 64 65 67 68 68 66 67 68 68 66 67 70 71 69 67 65 63 60 55 53 55 58 58 58 60 60 61 61 58 53 50 50 55 61 62 67 72 69 69 74 74 69 66 65 64 65 66 69 73 76 79 80 80 80 80 76 72 69 66 65 64 66 67 70 72 70 69 72 72 73 76 79 79 78
52 52 52 51 51 52 55 56 55 53 54 56 58 62 67 68 69 70 70 67 64 65 68 70 70 68 65 61 59 56 53 55 60 63 64 66 66 63 61 58 55 52 52 56 60 61 64 70 70 69 71 70 66 64 63 62 62 65 68 72 77 80 80 80 80 79 76 74 70 68 66 65 65 66 67 67 65 63 63 61 61 65 68 70 72
50 51 52 51 50 51 52 52 52 51 52 55 57 61 65 68 69 69 66 64 61 59 59 59 59 60 59 57 55 54 53 53 56 60 64 67 66 62 56 54 55 56 56 57 59 60 62 66 69 69 67 65 65 67 67 63 61 65 68 70 73 76 79 79 79 78 77 75 72 69 68 67 69 70 69 67 64 61 59 58 56 55 55 57 60
50 49 49 49 48 48 48 49 49 51 53 55 56 56 59 60 61 61 59 59 58 56 54 53 50 50 50 50 49 49 51 52 53 55 58 61 61 57 53 54 57 58 58 56 55 56 58 60 61 61 62 64 66 67 66 64 62 64 69 71 72 74 77 78 78 77 75 72 69 68 68 68 70 71 71 69 66 63 59 56 53 51 49 48 49
51 50 50 49 48 47 48 48 48 49 51 52 51 51 53 54 55 55 55 54 53 54 54 53 51 49 48 47 47 47 50 53 55 56 57 57 56 53 51 53 57 59 60 60 59 58 59 59 58 57 58 61 62 63 64 65 65 66 68 70 71 72 74 75 74 72 69 66 64 63 63 62 60 59 60 59 57 55 52 49 49 49 48 48 48
54 53 52 52 51 51 52 51 51 51 51 50 49 49 50 50 50 50 50 50 49 50 51 51 50 50 48 47 46 46 48 50 52 54 55 56 55 54 53 54 57 58 60 61 63 64 64 62 60 59 60 60 60 61 64 65 65 64 64 68 72 73 74 73 69 62 56 53 52 54 55 54 48 45 45 45 44 45 45 45 45 44 44 46 45
57 58 58 57 57 57 57 56 55 54 54 54 52 51 50 49 48 48 48 48 48 48 49 49 50 51 49 48 47 48 49 50 50 51 53 55 56 56 57 59 61 62 61 60 62 64 65 65 64 63 64 64 63 63 63 62 62 62 61 64 67 66 63 59 53 46 41 40 42 44 47 48 44 42 42 40 39 40 40 40 42 43 41 42 41
62 62 62 62 61 61 61 60 59 58 58 58 57 57 56 54 52 52 53 53 53 52 52 52 52 52 51 51 50 50 49 48 51 53 55 57 58 58 57 59 62 64 62 60 63 65 66 68 69 66 64 66 69 70 66 62 59 59 58 58 57 53 49 46 42 38 37 38 39 39 41 43 42 41 40 38 39 41 40 38 42 45 44 42 42
66 63 63 64 65 64 63 61 61 61 62 62 62 61 61 60 60 61 63 63 62 61 61 61 61 60 58 57 56 54 50 47 47 49 52 55 57 57 57 56 59 62 63 63 67 70 69 69 68 62 59 63 68 70 66 58 52 51 51 51 50 48 47 46 44 41 41 41 40 40 43 45 43 40 38 36 39 43 46 48 50 49 46 45 44
72 69 68 68 69 69 66 64 65 66 67 68 68 68 69 70 69 71 73 72 70 69 69 68 68 67 66 65 63 59 55 51 49 51 54 55 55 56 54 53 54 58 62 63 64 67 66 64 61 59 57 56 55 53 50 46 44 45 45 47 49 51 50 49 46 46 47 48 48 48 49 50 48 45 43 41 42 45 51 55 56 52 50 48 47
75 76 76 73 71 73 72 71 71 73 73 73 73 72 72 70 67 66 68 69 68 67 66 64 64 64 65 67 67 65 63 62 62 63 63 60 58 55 52 52 54 57 60 60 61 61 62 60 58 56 54 48 44 42 42 41 43 44 45 48 52 55 54 53 52 51 52 53 54 54 53 53 53 50 47 47 48 51 56 59 58 55 53 50 48
72 73 74 74 71 71 72 70 68 66 67 67 68 66 64 62 59 57 56 57 58 57 57 57 55 56 59 62 63 64 66 67 69 68 64 60 58 55 50 52 57 61 60 60 59 58 59 59 56 54 52 49 47 47 47 47 48 47 47 51 57 60 59 59 59 58 56 55 56 57 55 55 53 51 50 51 52 53 56 57 56 56 54 51 48
67 63 64 67 66 63 62 61 58 55 55 56 57 56 56 54 53 53 51 49 49 50 50 51 51 51 52 54 55 56 57 58 59 57 56 55 55 54 51 51 54 57 56 55 56 56 56 55 55 55 55 55 54 51 50 50 51 51 51 53 59 62 61 61 62 61 59 57 57 57 55 53 51 50 50 51 52 52 53 53 55 55 54 51 47
65 60 58 60 61 59 57 56 54 52 52 52 51 52 54 53 52 53 50 45 44 45 45 45 46 47 48 49 51 53 52 52 50 48 47 47 49 53 55 52 53 57 57 54 54 56 56 55 56 58 61 60 57 55 54 54 54 53 53 55 60 62 62 63 63 62 62 60 57 56 55 52 51 51 52 53 53 53 53 53 53 53 51 47 45
62 60 57 56 57 58 55 53 53 51 52 52 49 48 50 50 50 51 46 40 40 41 41 41 43 44 44 45 47 49 51 52 49 46 44 45 48 55 58 56 56 57 55 50 49 50 51 53 56 59 64 66 63 59 58 57 56 55 54 55 59 59 59 62 64 63 64 63 58 56 56 54 53 54 54 55 54 53 53 52 50 49 48 47 45
58 58 56 53 55 56 53 51 51 50 50 48 46 46 46 46 49 50 44 41 41 42 41 43 43 43 43 43 43 44 46 48 50 50 48 48 51 57 63 66 66 64 60 56 52 51 51 53 54 56 61 67 69 69 68 64 60 59 57 55 57 58 58 63 68 69 68 64 59 57 57 55 55 56 57 56 56 54 51 48 47 47 47 47 47
61 62 59 56 57 57 54 53 53 52 51 50 49 49 46 47 50 50 44 42 43 43 43 45 45 46 45 44 44 45 46 46 50 53 54 53 55 58 63 69 71 70 69 67 64 63 63 63 63 62 62 65 69 72 72 68 65 64 62 59 60 61 62 65 70 71 68 62 58 56 57 57 57 59 60 59 57 52 48 46 46 46 48 49 49
68 68 65 63 63 63 61 62 61 59 58 57 56 55 51 50 52 50 45 44 45 46 48 50 53 54 53 51 50 50 50 50 51 54 57 57 57 58 62 66 68 69 69 67 66 69 71 71 71 70 67 67 69 70 67 64 64 65 65 65 65 66 65 66 67 67 63 60 57 58 59 61 62 63 64 60 55 50 48 48 48 49 49 47 44
71 71 70 68 67 66 66 66 65 64 62 63 62 61 59 57 56 54 52 52 52 49 48 48 49 52 54 54 52 51 52 53 52 54 58 60 59 59 61 63 65 66 65 63 62 64 66 65 64 67 67 67 68 71 71 70 70 69 68 69 68 66 65 64 63 62 61 60 61 62 63 64 65 66 63 58 53 50 49 48 45 43 42 38 35
66 67 68 68 69 68 67 65 63 60 59 57 57 57 57 56 55 52 51 51 49 45 43 41 40 41 43 44 45 45 46 47 46 48 54 57 58 60 61 62 65 67 66 65 62 61 61 61 60 65 70 72 71 72 73 74 75 73 71 70 68 65 63 62 62 62 63 63 63 63 63 63 64 62 58 54 51 47 42 39 37 36 34 32 30
61 61 62 63 63 64 62 59 56 51 47 45 44 44 44 44 43 42 41 40 39 38 36 35 34 33 32 32 34 35 35 37 39 42 46 48 50 54 57 60 63 65 66 68 66 64 64 64 61 64 73 79 80 80 75 71 69 68 68 68 65 63 62 62 61 61 61 62 61 60 58 56 56 54 52 48 44 38 34 33 34 34 33 33 30
56 57 57 57 57 56 55 54 53 50 46 44 42 41 42 42 41 40 39 37 35 33 30 29 28 29 29 29 30 31 30 31 34 37 39 41 42 44 47 53 56 57 59 62 62 62 65 63 60 64 75 81 84 83 77 69 64 62 62 62 60 59 59 57 56 55 55 56 56 54 51 49 48 47 44 41 38 35 34 36 36 35 35 35 31
54 55 55 55 54 53 52 51 51 51 51 50 49 48 48 47 45 42 38 35 33 31 30 29 30 30 30 30 29 30 30 31 32 33 34 36 36 35 37 41 45 47 51 56 57 57 59 58 56 62 71 76 77 76 73 68 65 62 61 60 59 58 56 54 53 54 53 53 52 49 45 44 42 40 38 37 38 39 39 41 40 35 33 32 31
52 53 53 53 53 53 53 52 52 51 49 48 47 45 44 42 39 37 34 32 32 31 30 31 31 31 31 31 30 29 30 30 30 30 31 32 33 32 31 32 35 38 43 50 54 55 54 54 54 57 59 61 64 66 66 65 64 61 58 57 56 55 53 51 51 52 51 51 48 44 42 41 39 37 38 40 42 42 42 41 39 36 34 35 37